RH
100 100 100 100 100 95 100 100 100 84 98 100 74 71 100 100 82 74 48 36 35 36 35 36 34 34 34 35 37 45 47 36 54 74 83 100 100 100 100 100 100 100 100
91 100 99 100 100 100 100 100 100 100 100 100 99 78 94 100 84 76 60 40 37 39 45 46 47 47 45 44 44 42 47 52 52 48 53 73 88 84 88 92 84 67 82
100 100 91 80 100 100 100 96 100 100 100 100 85 100 98 100 83 65 74 46 40 41 47 50 53 52 51 49 50 50 47 44 42 43 48 59 68 85 100 100 100 90 97
100 86 92 99 100 100 99 100 100 100 100 100 100 99 100 100 98 69 86 53 43 43 46 50 51 53 54 53 52 52 52 51 48 46 45 46 47 48 52 54 76 94 96
100 100 100 100 100 100 97 96 100 100 100 100 81 100 100 100 95 94 89 70 47 44 44 47 52 52 51 52 51 50 51 52 52 51 50 51 52 50 51 51 52 48 52
95 100 100 100 100 100 100 95 88 100 100 100 100 100 100 100 100 100 99 89 55 45 46 45 46 49 50 49 49 48 47 46 46 47 48 48 49 48 49 50 50 51 47
90 91 100 100 100 100 100 100 100 100 100 100 100 100 100 100 100 100 100 98 80 51 47 49 47 46 48 49 49 48 47 47 47 46 44 44 45 46 45 45 46 46 46
98 94 92 100 100 100 100 100 100 100 100 100 100 100 100 100 100 100 100 100 96 76 56 52 51 51 50 49 49 49 49 48 48 47 46 45 43 43 44 44 43 42 41
100 96 91 96 100 100 100 100 100 100 100 100 100 100 100 100 100 100 100 100 100 98 86 68 65 58 53 52 51 51 52 53 53 52 50 48 46 44 42 42 42 44 46
100 98 96 90 84 86 99 100 100 100 100 100 100 100 100 100 100 100 100 100 100 100 100 96 82 77 72 66 61 57 54 52 52 52 53 54 54 53 51 49 46 45 44
99 100 100 100 90 91 98 100 100 100 100 100 100 100 100 100 100 100 100 100 100 100 100 100 100 99 96 89 78 68 65 61 56 54 52 52 53 54 54 54 51 49 47
90 89 92 98 99 96 100 100 100 100 100 100 97 100 100 100 100 98 98 100 100 100 100 100 100 100 100 100 100 100 89 77 70 65 61 58 56 55 55 54 54 53 53
90 95 95 99 98 92 87 94 100 100 100 100 100 100 100 100 100 100 97 92 96 99 100 100 100 100 100 100 100 100 100 100 100 100 100 98 92 85 77 69 61 52 48
70 72 78 89 99 100 100 99 95 99 100 100 100 100 100 100 100 100 100 100 100 95 97 100 100 100 100 100 100 98 99 98 94 94 95 92 86 82 79 77 75 72 68
57 60 66 72 81 91 100 100 100 100 100 100 100 100 100 100 100 97 96 94 94 96 90 79 70 63 63 64 64 66 68 68 65 63 65 67 67 65 63 62 62 61 61
59 54 56 63 70 80 91 98 100 100 100 100 100 100 100 100 100 100 100 100 96 92 86 81 76 71 67 65 60 58 61 60 60 57 55 56 55 53 53 51 50 48 47
78 77 78 87 90 88 86 90 97 100 100 100 100 100 99 98 98 95 93 92 89 85 82 80 80 79 75 72 70 66 64 64 62 61 59 58 56 56 55 54 52 50 49
88 87 88 90 89 90 93 97 100 100 100 100 100 100 98 96 95 93 93 94 97 97 97 96 95 94 92 90 88 88 86 83 80 75 69 65 60 55 52 50 50 48 47
98 97 100 100 99 98 98 100 100 100 99 96 92 89 83 80 79 79 79 79 79 81 83 85 86 84 82 77 72 67 65 64 62 60 57 56 53 50 47 43 42 41 40
100 100 100 100 100 100 100 100 99 100 98 91 87 87 87 87 84 82 80 79 77 73 69 67 65 65 66 65 62 60 57 52 50 55 50 49 46 46 44 39 39 38 40
100 100 100 100 100 100 100 100 100 100 97 98 98 99 100 97 88 79 74 74 75 76 77 77 78 77 78 78 74 69 63 60 59 58 57 54 53 51 50 48 43 39 35
100 100 100 100 100 100 100 100 100 97 93 94 99 99 100 99 97 95 97 98 99 98 95 92 91 89 84 80 77 71 64 60 56 54 52 48 45 42 39 36 34 32 30
100 99 99 99 98 97 98 100 98 96 93 92 91 86 82 79 77 74 70 65 61 56 54 51 48 46 44 42 40 39 36 34 30 29 28 27 26 23 21 20 16 16 15
99 100 100 99 99 100 99 96 93 92 88 80 73 67 65 63 58 55 55 52 50 49 48 44 41 40 36 32 29 28 26 24 21 19 17 17 16 15 15 14 13 12 11
100 100 100 100 100 100 100 97 93 89 88 85 80 74 70 66 59 55 55 53 51 48 44 40 36 33 31 28 24 22 20 17 15 13 11 11 10 8 8 8 7 7 7
99 100 100 100 100 100 99 95 91 88 85 80 77 72 69 65 60 55 54 51 45 39 32 25 20 18 17 16 15 13 11 10 9 8 8 8 8 7 7 7 7 7 6
Wind_Speed
73 70 66 63 62 63 57 57 55 57 56 60 53 53 54 51 45 45 41 39 41 40 39 38 38 38 39 39 40 40 44 52 59 63 62 61 65 67 66 64 64 62 61
65 67 64 65 64 59 61 56 59 61 61 58 58 57 57 54 51 48 45 43 43 44 41 40 38 38 37 37 37 38 39 40 43 46 54 63 64 71 71 69 68 66 70
67 69 67 64 64 62 62 62 62 65 64 64 60 64 57 55 51 54 51 46 47 48 46 45 44 43 43 42 42 42 41 41 41 41 41 42 43 46 64 67 66 64 61
75 70 68 67 68 67 65 64 65 67 68 64 66 61 62 63 55 58 56 51 51 52 52 51 50 49 49 48 48 48 47 47 46 46 45 45 44 43 45 48 48 56 57
70 67 73 73 71 71 67 65 67 69 68 66 66 67 66 66 63 62 60 57 54 55 56 57 56 56 56 55 55 55 55 54 53 53 52 52 52 52 52 52 52 52 52
84 79 70 74 74 74 73 71 67 70 69 71 71 70 68 68 65 65 62 60 59 59 60 61 62 61 61 61 61 61 60 60 60 60 60 60 61 60 60 60 60 61 59
70 75 80 70 75 78 79 78 77 75 75 75 75 73 72 71 69 67 64 63 62 62 64 65 65 66 67 67 66 66 66 66 66 66 67 66 67 67 67 68 68 69 69
67 69 72 76 74 75 77 79 78 77 76 76 72 73 72 71 71 70 69 67 67 66 66 68 69 70 70 70 71 71 72 72 72 72 72 73 73 72 73 73 74 76 77
67 67 68 69 71 74 74 75 78 80 79 78 78 74 73 73 72 72 73 72 71 71 71 72 71 73 74 75 76 77 77 78 78 79 79 79 80 80 80 80 80 80 81
68 70 70 70 70 72 72 72 74 76 78 79 80 79 75 73 75 75 76 77 77 76 76 77 77 78 78 78 80 81 82 84 85 85 85 86 86 86 87 87 88 88 88
70 71 73 72 71 72 72 72 74 75 76 77 78 80 79 80 77 76 77 79 80 81 81 82 82 84 84 85 85 87 88 88 89 90 91 92 93 93 93 94 95 95 95
71 74 77 78 76 76 75 74 73 74 75 78 79 80 82 83 83 82 81 81 82 85 86 86 87 86 87 88 89 91 92 93 94 95 96 97 98 99 99 100 100 101 102
71 73 73 74 75 78 80 79 77 75 75 76 80 83 85 85 87 89 90 90 87 87 88 90 91 92 92 93 94 95 96 97 98 99 100 101 103 104 105 106 107 108 109
73 76 79 78 78 78 79 80 82 82 81 80 80 82 86 89 90 91 93 93 94 95 94 94 95 96 97 98 99 100 102 103 104 105 107 108 109 111 111 112 112 112 113
68 75 80 83 84 84 84 85 85 85 86 87 86 85 87 90 92 94 95 96 98 100 102 103 103 104 104 104 105 106 107 108 110 111 111 112 114 115 117 118 119 119 119
58 64 73 81 84 87 88 89 89 90 90 90 91 90 90 91 93 94 96 98 100 101 103 104 106 108 109 111 112 113 114 115 116 118 118 119 121 122 123 124 125 126 126
58 61 65 70 76 82 85 87 88 89 90 92 94 94 94 93 95 96 98 100 103 105 107 109 111 113 115 116 118 119 119 121 122 124 126 127 128 130 131 132 132 132 133
59 61 65 67 71 75 79 81 83 86 89 91 93 95 97 98 98 100 102 104 106 108 110 112 114 116 119 121 123 124 125 127 128 130 132 133 135 137 138 138 139 139 139
62 63 65 67 68 70 73 76 78 81 84 88 91 94 97 100 102 104 105 107 108 110 112 115 117 120 123 126 127 129 130 132 133 136 137 139 141 143 144 145 145 146 146
66 65 66 68 70 73 75 78 81 83 86 89 91 93 95 97 99 101 104 106 109 111 114 117 119 122 124 127 130 132 133 134 136 138 141 143 145 146 149 149 149 149 150
70 70 72 73 75 77 79 81 83 86 88 90 92 94 97 100 102 104 107 109 111 114 116 119 122 124 128 130 134 136 137 138 140 142 144 146 149 150 152 153 153 153 155
75 76 77 79 81 82 82 84 87 89 91 93 95 98 100 103 105 108 111 114 117 120 123 125 127 131 133 135 138 141 144 146 147 149 151 154 157 159 160 161 162 163 165
81 81 81 82 83 85 87 89 92 94 96 98 100 102 104 107 109 112 115 119 122 124 127 130 132 135 139 142 145 148 152 154 156 156 157 158 159 159 158 158 157 155 155
84 84 85 86 88 90 92 95 97 99 102 104 106 109 111 114 117 120 123 126 129 132 135 137 140 142 144 146 147 148 149 149 148 147 144 144 143 142 141 142 143 143 144
92 92 92 93 95 97 100 102 104 106 108 111 114 116 120 123 126 128 131 133 134 134 135 136 136 135 134 135 136 136 136 136 137 137 134 133 132 132 131 131 131 132 132
93 95 96 98 101 103 105 107 109 112 115 118 120 122 124 126 127 126 125 126 125 125 125 124 123 122 122 124 125 126 125 125 125 124 125 125 124 124 123 123 123 124 123
Wind_Direction
237 240 244 248 247 251 250 248 247 254 252 250 254 256 258 253 259 264 266 260 251 244 240 239 240 241 243 244 245 243 241 240 239 240 240 241 241 247 248 249 247 246 250
245 239 241 240 245 244 242 243 250 248 249 248 254 255 256 253 257 263 260 258 250 243 240 238 238 240 241 242 243 242 240 239 239 240 243 245 247 247 249 250 251 253 249
240 239 246 248 240 241 239 250 247 245 248 247 252 251 251 254 255 262 258 255 250 244 241 239 240 240 242 242 242 243 243 242 240 238 238 240 245 247 243 248 252 252 249
242 247 245 242 241 239 242 244 243 247 249 245 248 251 251 255 253 260 256 251 250 246 243 242 242 241 242 244 245 247 248 248 247 247 246 245 246 245 245 246 249 247 251
240 242 238 240 239 243 242 240 242 244 247 246 249 250 249 250 251 253 254 249 249 248 245 244 244 244 244 245 245 245 247 248 250 251 251 251 251 250 251 251 251 250 249
236 239 242 239 241 241 244 242 241 243 244 248 247 248 249 250 251 253 250 249 248 249 248 247 246 247 247 248 248 248 248 249 250 250 251 252 253 252 253 254 254 256 254
238 236 237 239 241 242 242 242 242 240 243 246 247 247 250 249 249 250 250 248 248 249 249 249 249 249 249 250 251 251 251 252 252 252 252 252 253 254 254 254 255 255 255
236 235 235 238 238 240 240 240 241 241 242 244 246 249 251 253 252 251 251 250 248 249 250 250 251 251 251 252 253 254 254 254 254 255 255 256 255 255 254 255 256 257 256
238 238 237 237 237 239 241 241 242 243 244 245 247 247 249 252 253 253 252 251 252 251 250 251 252 252 253 254 254 255 255 255 256 256 256 256 256 257 257 256 256 257 258
240 241 239 239 239 240 241 243 245 244 245 247 247 248 248 251 253 254 254 253 253 253 255 253 253 253 253 254 255 256 256 256 257 257 257 257 257 257 257 257 257 258 258
240 240 240 242 243 244 244 244 245 246 247 248 250 250 249 249 250 253 256 256 255 256 255 256 256 256 256 256 256 256 256 257 257 258 258 259 259 259 259 259 259 259 259
244 244 243 245 245 245 245 246 246 247 247 249 250 251 251 251 251 251 253 255 257 258 258 258 258 259 259 259 260 261 261 261 261 261 261 261 261 261 261 261 261 260 260
245 244 244 246 247 247 246 246 247 249 251 250 250 250 251 252 253 254 254 254 255 257 259 260 260 260 260 260 260 260 261 262 263 263 263 263 264 264 263 263 263 262 262
249 247 245 245 246 247 247 247 248 249 251 253 253 252 251 251 253 254 255 255 256 256 257 258 259 260 261 261 261 262 263 264 265 265 265 265 265 265 265 265 265 265 265
250 247 246 246 247 247 247 248 249 250 251 252 254 254 253 253 254 255 256 257 258 259 259 261 262 263 264 264 265 265 265 265 265 265 266 266 266 266 266 266 266 266 265
258 251 248 246 246 247 248 249 250 251 252 254 255 256 256 256 256 257 259 260 261 261 262 263 263 264 264 264 265 265 266 266 267 267 267 267 267 267 267 267 267 267 266
260 257 250 247 247 248 249 250 250 251 252 254 255 257 258 259 259 259 260 261 262 263 263 264 265 265 266 267 267 268 268 268 268 269 269 269 269 269 269 269 268 268 268
258 259 255 252 250 249 249 250 251 252 254 255 256 257 258 259 260 261 261 262 263 263 264 265 265 266 267 268 268 268 268 269 269 269 270 270 270 271 271 271 271 271 270
252 255 255 254 254 254 254 255 255 256 256 257 259 260 260 261 262 264 264 265 266 266 266 266 267 267 267 268 268 269 269 270 270 271 272 271 271 271 271 271 271 271 271
251 251 254 257 258 257 257 257 256 257 258 259 260 262 263 264 265 266 267 267 268 268 268 269 269 270 270 271 271 272 271 271 272 273 273 273 273 273 273 272 272 272 272
250 252 252 252 252 254 256 258 260 262 263 264 265 265 266 266 267 268 269 269 270 271 271 271 272 272 272 272 273 273 273 273 273 274 274 274 273 273 273 273 274 274 273
250 251 251 253 255 256 256 257 259 260 262 263 264 264 265 266 267 268 269 270 270 270 270 270 271 271 272 272 273 273 273 273 273 272 272 272 272 273 273 274 274 274 274
255 256 257 258 258 259 259 260 262 263 264 264 265 266 267 268 268 269 269 270 271 271 271 272 272 273 273 273 274 274 274 274 274 274 274 274 274 274 274 275 275 275 274
256 257 258 259 261 263 264 266 267 269 270 270 271 272 273 273 274 274 275 276 277 277 277 276 276 276 276 276 276 276 276 276 276 277 277 276 276 276 276 275 275 275 275
254 256 258 260 262 264 266 267 269 270 272 273 274 276 276 276 277 278 278 278 278 278 278 277 278 278 278 278 278 278 277 278 278 278 278 278 277 277 277 276 276 276 276
256 257 259 262 263 264 267 269 270 272 273 274 276 277 278 278 279 280 280 280 279 279 280 280 280 280 280 280 280 280 280 280 279 279 279 279 278 278 277 277 277 276 276